Location: Unspecified
(0.0000°N, 0.0000°E)
Time: 04:08:42
(UTC+00:00)

ISS - All Passes

Search period start: 12 March 2026 00:00
Search period end: 22 March 2026 00:00
Orbit: 415 x 426 km, 51.6° (Epoch: 11 March)

Date Brightness Start Highest point End Pass type
(mag) Time Alt. Az. Time Alt. Az. Time Alt. Az.
12 Mar - 04:32:07 10° NNW 04:35:25 74° NE 04:38:44 10° SE visible
12 Mar - 16:08:41 10° SSW 16:11:58 46° SE 16:15:14 10° NE daylight
13 Mar - 03:45:28 10° N 03:48:25 29° NE 03:51:23 10° ESE visible
13 Mar - 15:22:18 10° S 15:24:56 21° SE 15:27:33 10° ENE daylight
13 Mar - 16:59:58 10° W 17:01:34 13° NW 17:03:09 10° NNW daylight
14 Mar - 02:59:33 10° NNE 03:01:22 14° NE 03:03:10 10° E night (unlit)
14 Mar - 04:35:38 10° W 04:38:00 18° SW 04:40:22 10° S visible
14 Mar - 16:11:35 10° WSW 16:14:30 27° NW 16:17:25 10° N daylight
15 Mar - 03:47:47 10° NW 03:50:56 40° SW 03:54:05 10° SSE night (unlit)
15 Mar - 15:24:05 10° SW 15:27:27 64° NW 15:30:48 10° NNE daylight
16 Mar - 03:00:33 10° NNW 03:03:53 80° ENE 03:07:12 10° SE night (unlit)
16 Mar - 14:37:04 10° SSW 14:40:23 49° SE 14:43:40 10° NE daylight
17 Mar - 02:13:47 10° N 02:16:48 31° NE 02:19:48 10° ESE night (unlit)
17 Mar - 13:50:35 10° S 13:53:16 22° SE 13:55:58 10° ENE daylight
17 Mar - 15:28:30 10° WNW 15:29:54 12° NW 15:31:19 10° NNW daylight
18 Mar - 01:27:44 10° NNE 01:29:41 15° NE 01:31:38 10° E night (unlit)
18 Mar - 03:04:02 10° W 03:06:18 17° SW 03:08:35 10° S night (unlit)
18 Mar - 13:05:32 10° SE 13:06:08 10° SE 13:06:44 10° ESE daylight
18 Mar - 14:39:55 10° WSW 14:42:46 25° NW 14:45:38 10° N daylight
19 Mar - 02:16:04 10° NW 02:19:11 37° SW 02:22:19 10° SSE night (unlit)
19 Mar - 13:52:18 10° SW 13:55:39 60° NW 13:58:59 10° NNE daylight
20 Mar - 01:28:43 10° NW 01:32:03 85° NE 01:35:23 10° SE night (unlit)
20 Mar - 13:05:12 10° SSW 13:08:31 53° SE 13:11:49 10° NE daylight
21 Mar - 00:41:52 10° NNW 00:44:55 33° NE 00:47:58 10° ESE night (unlit)
21 Mar - 12:18:36 10° S 12:21:21 23° SE 12:24:06 10° ENE daylight
21 Mar - 13:56:47 10° WNW 13:57:59 11° NW 13:59:11 10° NNW daylight
21 Mar - 23:55:41 10° NNE 23:57:44 15° NE 23:59:48 10° E night (unlit)
